Location: �perlecques
(50.8057°N, 2.1521°E)
Time: 03:33:31
(UTC+00:00)

Transit 4A - All Passes

Search period start: 26 July 2021 00:00
Search period end: 05 August 2021 00:00
Orbit: 872 x 972 km, 66.8° (Epoch: 25 July)

Date Brightness Start Highest point End Pass type
(mag) Time Alt. Az. Time Alt. Az. Time Alt. Az.
26 Jul - 01:09:09 10° SSW 01:14:55 58° ESE 01:20:38 10° NE visible
26 Jul - 02:56:06 10° WSW 03:01:32 38° NW 03:06:58 10° NNE visible
26 Jul - 04:45:38 10° NW 04:49:35 18° NNW 04:53:31 10° NNE daylight
26 Jul - 06:34:11 10° NNW 06:38:14 19° NNE 06:42:18 10° ENE daylight
26 Jul - 08:20:37 10° NNW 08:26:09 42° NE 08:31:45 10° ESE daylight
26 Jul - 10:07:00 10° NW 10:12:40 51° WSW 10:18:23 10° SSE daylight
26 Jul - 23:35:11 10° SE 23:38:42 16° ESE 23:42:11 10° ENE visible
27 Jul - 01:18:16 10° SSW 01:24:09 80° SE 01:30:01 10° NE visible
27 Jul - 03:05:57 10° W 03:11:06 31° NNW 03:16:15 10° NNE visible
27 Jul - 04:55:39 10° NW 04:59:22 17° N 05:03:06 10° NNE daylight
27 Jul - 06:43:36 10° NNW 06:47:59 21° NNE 06:52:22 10° ENE daylight
27 Jul - 08:29:53 10° NNW 08:35:38 54° NE 08:41:26 10° ESE daylight
27 Jul - 10:16:30 10° NW 10:21:49 36° WSW 10:27:10 10° S daylight
27 Jul - 23:43:08 10° SSE 23:47:41 24° ESE 23:52:13 10° ENE visible
28 Jul - 01:27:34 10° SW 01:33:27 77° NW 01:39:20 10° NE visible
28 Jul - 03:15:56 10° W 03:20:44 25° NNW 03:25:33 10° NNE visible
28 Jul - 05:05:33 10° NW 05:09:11 17° N 05:12:50 10° NE daylight
28 Jul - 06:52:57 10° NNW 06:57:41 24° NNE 07:02:26 10° E daylight
28 Jul - 08:39:10 10° NW 08:45:02 72° NE 08:50:57 10° SE daylight
28 Jul - 10:26:09 10° NW 10:30:53 26° WSW 10:35:41 10° SSW daylight
28 Jul - 23:51:32 10° S 23:56:45 33° ESE 00:01:55 10° NE visible
29 Jul - 01:37:03 10° SW 01:42:51 58° NW 01:48:37 10° NNE visible
29 Jul - 03:25:58 10° WNW 03:30:26 22° NNW 03:34:52 10° NNE visible
29 Jul - 05:15:19 10° NW 05:19:00 17° N 05:22:42 10° NE daylight
29 Jul - 07:02:16 10° NNW 07:07:19 29° NNE 07:12:26 10° E daylight
29 Jul - 08:48:28 10° NW 08:54:21 86° SW 09:00:19 10° SSE daylight
29 Jul - 10:36:04 10° WNW 10:39:54 18° WSW 10:43:47 10° SSW daylight
30 Jul - 00:00:17 10° S 00:05:52 47° ESE 00:11:26 10° NE visible
30 Jul - 01:46:41 10° WSW 01:52:18 44° NW 01:57:53 10° NNE visible
30 Jul - 03:36:03 10° WNW 03:40:10 19° NNW 03:44:17 10° NNE visible
30 Jul - 05:24:56 10° NNW 05:28:49 18° N 05:32:43 10° NE daylight
30 Jul - 07:11:31 10° NNW 07:16:54 36° NE 07:22:20 10° ESE daylight
30 Jul - 08:57:49 10° NW 09:03:37 63° WSW 09:09:29 10° SSE daylight
30 Jul - 10:46:40 10° W 10:48:51 12° WSW 10:51:03 10° WSW daylight
30 Jul - 22:27:27 10° SE 22:29:50 13° ESE 22:32:11 10° ENE visible
31 Jul - 00:09:16 10° SSW 00:15:05 65° ESE 00:20:52 10° NE visible
31 Jul - 01:56:28 10° WSW 02:01:49 35° NW 02:07:09 10° NNE visible
31 Jul - 03:46:06 10° NW 03:49:57 18° N 03:53:48 10° NNE daylight
31 Jul - 05:34:25 10° NNW 05:38:35 20° NNE 05:42:46 10° ENE daylight
31 Jul - 07:20:48 10° NNW 07:26:25 46° NE 07:32:06 10° ESE daylight
31 Jul - 09:07:16 10° NW 09:12:49 45° WSW 09:18:26 10° S daylight
31 Jul - 22:34:50 10° SSE 22:38:46 19° ESE 22:42:41 10° ENE visible
01 Aug - 00:18:26 10° SW 00:24:20 88° SE 00:30:13 10° NE visible
01 Aug - 02:06:23 10° W 02:11:24 29° NNW 02:16:26 10° NNE visible
01 Aug - 03:56:05 10° NW 03:59:45 17° N 04:03:26 10° NE daylight
01 Aug - 05:43:49 10° NNW 05:48:19 22° NNE 05:52:51 10° ENE daylight
01 Aug - 07:30:04 10° NNW 07:35:52 60° NE 07:41:44 10° SE daylight
01 Aug - 09:16:47 10° NW 09:21:56 32° WSW 09:27:09 10° S daylight
01 Aug - 22:42:59 10° SSE 22:47:48 27° ESE 22:52:34 10° NE visible
02 Aug - 00:27:48 10° SW 00:33:41 69° NW 00:39:31 10° NE visible
02 Aug - 02:16:23 10° W 02:21:04 24° NNW 02:25:44 10° NNE visible
02 Aug - 04:05:56 10° NW 04:09:34 17° N 04:13:13 10° NE daylight
02 Aug - 05:53:08 10° NNW 05:58:00 26° NNE 06:02:54 10° E daylight
02 Aug - 07:39:20 10° NW 07:45:14 79° NE 07:51:12 10° SE daylight
02 Aug - 09:26:30 10° WNW 09:31:00 23° WSW 09:35:31 10° SSW daylight
02 Aug - 22:51:31 10° S 22:56:52 38° ESE 23:02:12 10° NE visible
03 Aug - 00:37:21 10° WSW 00:43:05 52° NW 00:48:48 10° NNE visible
03 Aug - 02:26:26 10° WNW 02:30:46 21° NNW 02:35:06 10° NNE visible
03 Aug - 04:15:38 10° NNW 04:19:23 17° N 04:23:09 10° NE daylight
03 Aug - 06:02:26 10° NNW 06:07:38 31° NNE 06:12:51 10° E daylight
03 Aug - 07:48:40 10° NW 07:54:33 77° SW 08:00:30 10° SSE daylight
03 Aug - 09:36:34 10° WNW 09:39:59 16° WSW 09:43:24 10° SW daylight
03 Aug - 23:00:20 10° SSW 23:06:01 53° ESE 23:11:41 10° NE visible
04 Aug - 00:47:03 10° WSW 00:52:33 41° NW 00:58:04 10° NNE visible
04 Aug - 02:36:31 10° WNW 02:40:32 19° NNW 02:44:33 10° NNE visible
04 Aug - 04:25:12 10° NNW 04:29:10 18° NNE 04:33:11 10° ENE daylight
04 Aug - 06:11:42 10° NNW 06:17:11 39° NE 06:22:43 10° ESE daylight
04 Aug - 07:58:04 10° NW 08:03:47 56° WSW 08:09:35 10° SSE daylight
04 Aug - 09:48:03 10° W 09:48:54 10° W 09:49:45 10° WSW daylight
04 Aug - 21:26:50 10° SE 21:29:53 15° ESE 21:32:55 10° ENE visible
04 Aug - 23:09:23 10° SSW 23:15:14 73° SE 23:21:05 10° NE visible
